Weather History for K08D - January, 2013

Change the Weather History Date:

Sunday, January 27, 2013

  Actual Average (KMOT) Record (KMOT)
Temperature  
Mean Temperature 19 °F 13 °F  
Max Temperature 28 °F 22 °F 55 °F (1906)
Min Temperature 10 °F 4 °F -40 °F (1920)
Degree Days  
Heating Degree Days 46 52  
Month to date heating degree days 1427  
Since 1 July heating degree days 5022  
Moisture  
Dew Point 17 °F    
Average Humidity 92    
Maximum Humidity 100    
Minimum Humidity 74    
Precipitation  
Precipitation 1.84 in 0.01 in 0.16 in (1962)
Month to date precipitation 0.45  
Year to date precipitation 0.45  
Sea Level Pressure  
Sea Level Pressure 29.73 in    
Wind  
Wind Speed 5 mph (ENE)    
Max Wind Speed 13 mph    
Max Gust Speed -    
Visibility 9 miles    
Events Snow    
T = Trace of Precipitation, MM = Missing Value Source: NWS Daily Summary

Daily Weather History Graph

Daily Weather History Graph

Search for Another Location

Airport or City:

Trip Planner

Search our weather history database for the weather conditions in past years. The results will help you decide how hot, cold, wet, or windy it might be!

Date:

Astronomy

Jan. 27, 2013 Rise Set
Actual Time 8:24 AM CST 5:41 PM CST
Civil Twilight 7:50 AM CST 6:15 PM CST
Nautical Twilight 7:12 AM CST 6:53 PM CST
Astronomical Twilight 6:35 AM CST 7:30 PM CST
Moon 6:46 PM CST 8:11 AM CST
Length of Visible Light 10h 25m
Length of Day
9h 17m
Full, 100% of the Moon is Illuminated
Jan 27
Full
Feb 3
Last Quarter
Feb 10
New
Feb 17
First Quarter
Feb 25
Full

Hourly Weather History & Observations

Time (CST) Temp. Windchill Dew Point Humidity Pressure Visibility Wind Dir Wind Speed Gust Speed Precip Events Conditions
12:15 AM 15.8 °F 7.2 °F 14.0 °F 93% 29.82 in 10.0 mi ESE 5.8 mph - N/A   Clear
12:35 AM 15.8 °F 6.1 °F 14.0 °F 93% 29.81 in 10.0 mi ESE 6.9 mph - N/A   Clear
12:55 AM 14.0 °F 3.9 °F 14.0 °F 100% 29.81 in 10.0 mi ESE 6.9 mph - N/A   Clear
1:15 AM 14.0 °F 3.9 °F 14.0 °F 100% 29.80 in 10.0 mi ESE 6.9 mph - N/A   Clear
1:35 AM 14.0 °F 3.9 °F 14.0 °F 100% 29.80 in 10.0 mi ESE 6.9 mph - N/A   Clear
1:55 AM 14.0 °F 2.9 °F 12.2 °F 93% 29.79 in 10.0 mi ESE 8.1 mph - N/A   Clear
2:15 AM 12.2 °F 0.7 °F 10.4 °F 92% 29.78 in 10.0 mi ESE 8.1 mph - N/A   Clear
2:35 AM 12.2 °F 0.7 °F 10.4 °F 92% 29.78 in 10.0 mi ESE 8.1 mph - N/A   Clear
2:55 AM 12.2 °F - 10.4 °F 92% 29.78 in 10.0 mi Calm Calm - N/A   Clear
3:15 AM 12.2 °F 2.9 °F 10.4 °F 92% 29.77 in 10.0 mi East 5.8 mph - N/A   Clear
3:35 AM 12.2 °F 2.9 °F 10.4 °F 92% 29.76 in 10.0 mi East 5.8 mph - N/A   Clear
3:55 AM 12.2 °F 0.7 °F 10.4 °F 92% 29.75 in 10.0 mi ESE 8.1 mph - N/A   Clear
4:15 AM 10.4 °F 4.0 °F 10.4 °F 100% 29.75 in 10.0 mi SE 3.5 mph - N/A   Clear
4:35 AM 10.4 °F 0.8 °F 10.4 °F 100% 29.74 in 10.0 mi ESE 5.8 mph - N/A   Clear
4:55 AM 12.2 °F -0.2 °F 10.4 °F 92% 29.74 in 10.0 mi ESE 9.2 mph - N/A   Clear
5:15 AM 12.2 °F 0.7 °F 10.4 °F 92% 29.73 in 10.0 mi ESE 8.1 mph - N/A   Clear
5:35 AM 12.2 °F - 10.4 °F 92% 29.74 in 10.0 mi Calm Calm - N/A   Clear
5:55 AM 10.4 °F 4.0 °F 10.4 °F 100% 29.74 in 10.0 mi SE 3.5 mph - N/A   Clear
6:15 AM 10.4 °F 4.0 °F 8.6 °F 92% 29.74 in 10.0 mi ESE 3.5 mph - N/A   Clear
6:35 AM 10.4 °F - 8.6 °F 92% 29.74 in 10.0 mi Calm Calm - N/A   Clear
6:55 AM 10.4 °F - 8.6 °F 92% 29.74 in 10.0 mi Calm Calm - N/A   Mostly Cloudy
7:15 AM 12.2 °F 4.3 °F 10.4 °F 92% 29.73 in 10.0 mi East 4.6 mph - N/A   Overcast
7:35 AM 14.0 °F 5.1 °F 12.2 °F 93% 29.73 in 10.0 mi ENE 5.8 mph - N/A   Overcast
7:55 AM 14.0 °F 5.1 °F 12.2 °F 93% 29.73 in 10.0 mi East 5.8 mph - N/A   Overcast
8:15 AM 14.0 °F 8.2 °F 12.2 °F 93% 29.73 in 10.0 mi ENE 3.5 mph - N/A   Scattered Clouds
8:35 AM 12.2 °F 6.1 °F 10.4 °F 92% 29.74 in 10.0 mi ENE 3.5 mph - N/A   Clear
8:55 AM 12.2 °F - 10.4 °F 92% 29.75 in 10.0 mi Calm Calm - N/A   Partly Cloudy
9:15 AM 12.2 °F -0.2 °F 10.4 °F 92% 29.75 in 10.0 mi East 9.2 mph - N/A   Partly Cloudy
9:35 AM 14.0 °F 3.9 °F 12.2 °F 93% 29.74 in 10.0 mi East 6.9 mph - N/A   Clear
9:55 AM 14.0 °F 5.1 °F 12.2 °F 93% 29.74 in 10.0 mi SE 5.8 mph - N/A   Clear
10:15 AM 14.0 °F 6.5 °F 14.0 °F 100% 29.74 in 10.0 mi ESE 4.6 mph - N/A   Mostly Cloudy
10:35 AM 15.8 °F 10.2 °F 14.0 °F 93% 29.74 in 10.0 mi East 3.5 mph - N/A   Scattered Clouds
10:55 AM 17.6 °F 10.7 °F 14.0 °F 86% 29.75 in 10.0 mi East 4.6 mph - N/A   Clear
11:15 AM 17.6 °F 7.3 °F 15.8 °F 93% 29.74 in 10.0 mi East 8.1 mph - N/A   Clear
11:35 AM 17.6 °F - 15.8 °F 93% 29.75 in 10.0 mi Calm Calm - N/A   Clear
11:55 AM 17.6 °F 9.3 °F 15.8 °F 93% 29.74 in 10.0 mi East 5.8 mph - N/A   Clear
12:15 PM 19.4 °F 8.6 °F 15.8 °F 86% 29.71 in 10.0 mi East 9.2 mph - N/A   Clear
12:35 PM 19.4 °F 10.4 °F 17.6 °F 93% 29.70 in 10.0 mi ESE 6.9 mph - N/A   Clear
12:55 PM 21.2 °F 12.6 °F 17.6 °F 86% 29.70 in 10.0 mi SE 6.9 mph - N/A   Clear
1:15 PM 23.0 °F 17.0 °F 17.6 °F 80% 29.71 in 10.0 mi South 4.6 mph - N/A   Clear
1:35 PM 24.8 °F - 19.4 °F 80% 29.70 in 10.0 mi Calm Calm - N/A   Clear
1:55 PM 26.6 °F - 19.4 °F 74% 29.69 in 10.0 mi Calm Calm - N/A   Clear
2:15 PM 26.6 °F - 19.4 °F 74% 29.69 in 10.0 mi Calm Calm - N/A   Partly Cloudy
2:35 PM 28.4 °F - 21.2 °F 74% 29.68 in 10.0 mi Calm Calm - N/A   Clear
2:55 PM 26.6 °F - 21.2 °F 80% 29.69 in 10.0 mi Calm Calm - N/A   Clear
3:15 PM 26.6 °F - 21.2 °F 80% 29.69 in 10.0 mi Calm Calm - N/A   Partly Cloudy
3:35 PM 26.6 °F - 23.0 °F 86% 29.70 in 10.0 mi Calm Calm - N/A   Partly Cloudy
3:55 PM 26.6 °F - 23.0 °F 86% 29.70 in 10.0 mi Calm Calm - N/A   Scattered Clouds
4:15 PM 26.6 °F 22.6 °F 23.0 °F 86% 29.70 in 10.0 mi WNW 3.5 mph - N/A   Scattered Clouds
4:35 PM 26.6 °F 20.0 °F 23.0 °F 86% 29.71 in 10.0 mi NW 5.8 mph - N/A   Partly Cloudy
4:55 PM 26.6 °F 17.5 °F 23.0 °F 86% 29.72 in 10.0 mi WNW 9.2 mph - N/A   Partly Cloudy
5:15 PM 26.6 °F 17.5 °F 23.0 °F 86% 29.71 in 10.0 mi NW 9.2 mph - N/A   Mostly Cloudy
5:35 PM 24.8 °F 15.3 °F 23.0 °F 93% 29.70 in 10.0 mi North 9.2 mph - N/A   Mostly Cloudy
5:55 PM 24.8 °F 19.1 °F 23.0 °F 93% 29.71 in 10.0 mi NW 4.6 mph - N/A   Overcast
6:15 PM 24.8 °F 16.9 °F 23.0 °F 93% 29.72 in 10.0 mi WNW 6.9 mph - N/A   Overcast
6:35 PM 24.8 °F 17.9 °F 23.0 °F 93% 29.73 in 10.0 mi NW 5.8 mph - N/A   Overcast
6:55 PM 23.0 °F 17.0 °F 21.2 °F 93% 29.74 in 10.0 mi NW 4.6 mph - N/A Snow Light Snow
7:15 PM 23.0 °F 15.8 °F 23.0 °F 100% 29.74 in 5.0 mi NW 5.8 mph - 0.03 in Snow Light Snow
7:35 PM 23.0 °F 14.7 °F 23.0 °F 100% 29.74 in 2.0 mi NW 6.9 mph - 0.23 in Snow Light Snow
7:55 PM 23.0 °F 14.7 °F 23.0 °F 100% 29.73 in 1.8 mi NW 6.9 mph - 0.45 in Snow Light Snow
8:15 PM 23.0 °F 14.7 °F 23.0 °F 100% 29.72 in 2.0 mi North 6.9 mph - 0.10 in Snow Light Snow
8:35 PM 23.0 °F 15.8 °F 23.0 °F 100% 29.72 in 10.0 mi NW 5.8 mph - 0.14 in Snow Light Snow
8:55 PM 23.0 °F 18.4 °F 23.0 °F 100% 29.71 in 10.0 mi North 3.5 mph - 0.15 in Snow Light Snow
9:15 PM 23.0 °F 15.8 °F 23.0 °F 100% 29.71 in 10.0 mi NW 5.8 mph - N/A   Overcast
9:35 PM 23.0 °F 14.7 °F 23.0 °F 100% 29.72 in 10.0 mi WNW 6.9 mph - N/A   Overcast
10:15 PM 24.8 °F 17.9 °F 24.8 °F 100% 29.71 in 10.0 mi North 5.8 mph - 0.03 in Snow Light Snow
10:35 PM 24.8 °F 17.9 °F 24.8 °F 100% 29.73 in 2.5 mi WNW 5.8 mph - 0.16 in Snow Light Snow
10:55 PM 24.8 °F 14.0 °F 24.8 °F 100% 29.73 in 5.0 mi WNW 11.5 mph - 0.22 in Snow Light Snow
11:15 PM 24.8 °F 13.4 °F 24.8 °F 100% 29.73 in 1.2 mi WNW 12.7 mph - 0.52 in Snow Light Snow
11:35 PM 26.6 °F 16.8 °F 26.6 °F 100% 29.73 in 3.0 mi WNW 10.4 mph - 0.78 in Snow Light Snow
11:55 PM 26.6 °F 16.8 °F 26.6 °F 100% 29.73 in 2.0 mi WNW 10.4 mph - 1.02 in Snow Light Snow